Zurück zum Katalog

STRIX-1

AktivWissenschaftSSO
NORAD 53815·PAYLOAD·🇯🇵 Japan

Gestartet Sep 15, 2022 von Rocket Lab Launch Complex 1

Loading…

Nächste Überflüge (nächste 24 Stunden)

TLE

AktuellSource: Space-Track

Epoche: Sep 14, 2026, 14:59 UTC

1 53815U 22113A   26257.62460168  .00020163  00000-0  45032-3 0  9995
2 53815  97.4395 321.4437 0002075 263.7754  96.3257 15.43563552221223

Verfolge STRIX-1 in Echtzeit mit AllMySat

Download on the App Store